[[{"header":{"parameterUnit":"m.s-1","parameterCategory":1,"la1":30.2991,"la2":30.254,"lo1":-89.0895,"lo2":-89.0444,"dy":0.0017,"dx":0.0017,"nx":28,"ny":28,"refTime":"2023-06-26T21:00:00:Z","depth":0,"parameterNumber":2,"parameterNumberName":"U-component_of_WINDS"},"data":[0,0,0,0,0,0,0,0,0,0,0,0,0,0,0,0,0,0,0,0,0,0,0,0,0,0,0,0,0,0,0,0,0,0,0,0,0,0,0,0,0,0,0,0,0,0,0,0,0,0,0,0,0,0,0,0,0,0,4.6628,4.6628,0,4.6632,4.6632,4.6632,4.6581,4.6579,4.6578,4.6576,4.6582,4.6584,4.6585,0,0,0,0,0,0,0,0,0,0,0,0,0,4.6581,4.6582,4.6628,4.6628,4.6628,4.6632,4.6632,4.6632,4.6581,4.6579,4.6577,4.6576,4.6582,4.6584,4.6585,0,0,0,0,0,0,0,0,0,0,0,0,0,4.6595,4.6582,4.6628,4.6603,4.6601,4.6632,4.6632,4.6632,4.6581,4.6579,4.6577,4.6575,4.6581,4.6584,4.6586,4.6641,0,0,4.6592,4.6593,0,0,0,0,0,0,0,0,4.6594,4.6597,4.6607,4.6605,4.6602,4.6603,4.6617,4.6635,4.6582,4.6589,4.6576,4.6574,4.6591,4.6593,4.6598,4.6642,4.6642,4.6593,4.6594,4.6595,4.6596,0,0,0,0,0,0,0,4.6593,4.6596,4.6629,4.6607,4.6604,4.6593,4.6593,4.662,4.6602,4.6588,4.6584,4.6585,4.659,4.6596,4.6598,4.6642,4.6593,4.6595,4.6596,4.6597,4.6736,4.6738,0,0,0,0,0,0,4.6595,4.6596,4.6629,4.6629,4.6593,4.6596,4.6595,4.6605,4.6601,4.6599,4.6587,4.6583,4.6593,4.6595,4.6598,4.6666,4.6595,4.6597,4.6598,4.6733,4.6736,4.6739,0,0,0,0,0,0,4.6594,4.6599,4.6629,4.6612,4.6615,4.6599,4.661,4.6606,4.6612,4.6601,4.6597,4.6597,4.6592,4.6595,4.6632,4.6665,4.6598,4.66,4.673,4.6734,4.6737,4.68,0,0,0,0,0,0,4.6593,4.6599,4.6618,4.6612,4.6616,4.6662,4.6612,4.6608,4.6616,4.6611,4.6609,4.6606,4.659,4.6629,4.6634,4.6667,4.6602,4.6727,4.6732,4.6736,4.6795,4.6805,4.6814,0,0,0,0,0,4.6592,4.6635,4.662,4.6624,4.664,4.6664,4.6666,4.6646,4.6619,4.664,4.6633,4.6606,4.666,4.6633,4.6638,4.6672,4.6725,4.6731,4.6736,4.6791,4.6803,4.6814,0,0,0,0,0,0,4.6646,4.6634,4.6616,4.6659,4.6663,4.6655,4.6681,4.6659,4.6671,4.6666,4.6641,4.6641,4.6683,4.6681,4.6651,4.6728,4.6688,4.6695,4.6728,4.674,4.6749,4.675,4.6603,0,0,0,0,0,4.6663,4.6682,4.6671,4.671,4.6713,4.6697,4.6706,4.6691,4.6694,4.6695,4.669,4.6695,4.6714,4.6726,4.6742,4.6794,4.6795,4.682,4.683,4.6838,4.6845,4.6876,4.6888,4.6756,4.6756,4.6756,0,0,4.6698,4.6694,4.6708,4.6721,4.6722,4.6745,4.6698,4.6723,4.674,4.6699,4.6735,4.6732,4.6735,4.6781,4.6801,4.6781,4.6881,4.6845,4.6851,4.6853,4.6882,4.6895,4.6906,4.676,4.6759,4.6759,0,0,4.6775,4.6772,4.6806,4.6809,4.6811,4.68,4.6808,4.6804,4.6801,4.6836,4.6806,4.6827,4.6858,4.6863,4.687,4.6951,4.6929,4.6957,4.7008,4.7038,4.7049,4.7058,4.709,4.7102,4.6963,4.6963,4.6963,0,4.6819,4.685,4.6827,4.6854,4.6863,4.6826,4.6862,4.6865,4.6873,4.6881,4.6857,4.6898,4.6898,4.6946,4.6966,4.6971,4.6983,4.6958,4.7049,4.7058,4.7066,4.7097,4.7109,4.6967,4.6966,4.6966,4.6966,0,4.6906,4.6929,4.6956,4.6965,4.6976,4.7007,4.6991,4.7005,4.6989,4.6981,4.7019,4.7018,4.7034,4.7044,4.7028,4.7091,4.7079,4.7053,4.7013,4.7083,4.7111,4.7123,4.6972,4.6971,4.697,4.6969,0,0,4.7017,4.7014,4.7025,4.703,4.703,4.7048,4.7079,4.7095,4.711,4.7116,4.7144,4.7172,4.7149,4.7156,4.7141,4.7167,4.7236,4.7138,4.7138,4.7159,4.731,4.7332,4.7346,4.7221,4.7223,4.7224,4.7311,0,4.7095,4.7147,4.7128,4.7182,4.7205,4.7172,4.7199,4.7204,4.7198,4.7217,4.7211,4.7233,4.7198,4.7203,4.7228,4.7223,4.7267,4.7216,4.7249,4.725,4.7252,4.736,4.7383,4.7464,4.7321,4.7323,4.7325,0,4.7192,4.7203,4.7261,4.726,4.7269,4.7294,4.7309,4.7327,4.7332,4.7326,4.7336,4.7316,4.7349,4.7307,4.7354,4.732,4.7332,4.7332,4.7335,4.7339,4.7294,4.7371,4.749,4.7503,4.7341,4.734,4.7339,0,4.7272,4.7301,4.734,4.7345,4.7344,4.7364,4.7365,4.7368,4.738,4.7393,4.7401,4.7418,4.7428,4.7442,4.7428,4.7398,4.7478,4.7434,4.7477,4.7477,4.7497,4.7496,4.7623,4.75,4.75,4.7499,4.7499,0,4.7362,4.7399,4.7377,4.7401,4.7443,4.742,4.7463,4.746,4.7463,4.7488,4.7459,4.7484,4.7462,4.7485,4.7473,4.7516,4.752,4.7518,4.7515,4.7522,4.7523,4.7532,4.7527,4.7503,4.7502,4.7501,4.7501,0,4.746,4.7445,4.7486,4.7483,4.7483,4.7514,4.7512,4.7535,4.7527,4.7559,4.7566,4.7554,4.758,4.7566,4.7592,4.7585,4.7641,4.7629,4.764,4.7638,4.7682,4.7679,4.7821,4.784,4.7702,4.7703,4.7704,0,4.752,4.7548,4.7547,4.7562,4.7565,4.7588,4.76,4.758,4.7594,4.7604,4.7627,4.765,4.7668,4.771,4.7706,4.7726,4.7717,4.7765,4.772,4.7727,4.7721,4.7721,4.7726,4.7775,4.7776,4.7778,4.7779,0,4.7629,4.7621,4.7639,4.7656,4.7672,4.7684,4.7694,4.7708,4.7688,4.7706,4.7732,4.7746,4.7773,4.7798,4.7816,4.7818,4.7797,4.7793,4.7804,4.7813,4.782,4.782,4.7668,4.779,4.7789,4.7788,4.7787,4.7787,4.7712,4.7737,4.7741,4.7764,4.7769,4.778,4.7802,4.7798,4.7819,4.7839,4.7826,4.7858,4.7865,4.7887,4.7893,4.7918,4.79,4.7915,4.792,4.7925,4.7933,4.7813,4.7921,4.7921,4.7921,4.792,4.792,0,4.7823,4.7825,4.7845,4.7861,4.7879,4.7855,4.7866,4.7883,4.7911,4.7919,4.7937,4.7969,4.7993,4.799,4.8012,4.8034,4.8025,4.8041,4.804,4.8042,4.7946,4.7936,4.8048,4.8048,4.8048,4.8048,4.8048,4.8048,4.7883,4.7925,4.7918,4.7963,4.7964,4.7994,4.8003,4.8014,4.802,4.8056,4.8076,4.8074,4.8079,4.8101,4.8123,4.8122,4.8133,4.8154,4.815,4.8061,4.8048,4.8036,4.8026,4.8156,4.8156,4.8243,4.8244,4.8245]},{"header":{"parameterUnit":"m.s-1","parameterCategory":1,"la1":30.2991,"la2":30.254,"lo1":-89.0895,"lo2":-89.0444,"dy":0.0017,"dx":0.0017,"nx":28,"ny":28,"refTime":"2023-06-26T21:00:00:Z","depth":0,"parameterNumber":3,"parameterNumberName":"V-component_of_WINDS"},"data":[0,0,0,0,0,0,0,0,0,0,0,0,0,0,0,0,0,0,0,0,0,0,0,0,0,0,0,0,0,0,0,0,0,0,0,0,0,0,0,0,0,0,0,0,0,0,0,0,0,0,0,0,0,0,0,0,0,0,0.8199,0.82,0,0.8222,0.8222,0.8222,0.8209,0.8208,0.8208,0.8207,0.823,0.8232,0.8233,0,0,0,0,0,0,0,0,0,0,0,0,0,0.8143,0.8145,0.8199,0.82,0.82,0.8222,0.8222,0.8222,0.8209,0.8208,0.8208,0.8207,0.823,0.8232,0.8233,0,0,0,0,0,0,0,0,0,0,0,0,0,0.8167,0.8145,0.8199,0.8196,0.8196,0.8222,0.8222,0.8222,0.8209,0.8208,0.8207,0.8206,0.823,0.8231,0.8233,0.8264,0,0,0.8239,0.824,0,0,0,0,0,0,0,0,0.8166,0.8169,0.8196,0.8196,0.8196,0.8212,0.8211,0.8236,0.8209,0.8204,0.8207,0.8206,0.8225,0.8227,0.8233,0.8265,0.8266,0.8239,0.824,0.8241,0.8241,0,0,0,0,0,0,0,0.8164,0.8168,0.8208,0.8197,0.8197,0.8193,0.8195,0.8216,0.822,0.8205,0.8204,0.8206,0.8225,0.8232,0.8234,0.8266,0.8239,0.8241,0.8242,0.8242,0.832,0.832,0,0,0,0,0,0,0.8163,0.8167,0.8208,0.8209,0.8178,0.8194,0.8197,0.8208,0.8219,0.822,0.8207,0.8206,0.8229,0.8232,0.8235,0.8269,0.8241,0.8243,0.8244,0.8319,0.832,0.8321,0,0,0,0,0,0,0.8162,0.8167,0.8207,0.8188,0.8192,0.8196,0.8208,0.8209,0.8215,0.8221,0.8222,0.8214,0.8228,0.8232,0.8256,0.8269,0.8243,0.8245,0.8318,0.8319,0.832,0.8339,0,0,0,0,0,0,0.816,0.8166,0.8179,0.8188,0.8193,0.8228,0.8209,0.821,0.8219,0.8217,0.8228,0.8229,0.8228,0.8253,0.8257,0.8271,0.8246,0.8316,0.8318,0.832,0.8337,0.834,0.8344,0,0,0,0,0,0.8158,0.8184,0.8179,0.8184,0.8209,0.8229,0.8232,0.8231,0.822,0.8232,0.8235,0.8228,0.8267,0.8256,0.8261,0.8275,0.8315,0.8318,0.832,0.8335,0.834,0.8343,0,0,0,0,0,0,0.8178,0.8185,0.818,0.821,0.8219,0.8227,0.8242,0.8236,0.8249,0.8246,0.8244,0.8247,0.8271,0.8275,0.8262,0.8303,0.8289,0.8293,0.8299,0.8304,0.8307,0.8305,0.8248,0,0,0,0,0,0.8185,0.8201,0.8207,0.8232,0.8236,0.8238,0.8247,0.8245,0.8254,0.8258,0.8263,0.8272,0.8286,0.8295,0.8309,0.8337,0.8338,0.8349,0.8353,0.8356,0.8358,0.837,0.8375,0.8328,0.8328,0.8328,0,0,0.8201,0.8207,0.8218,0.8236,0.8242,0.8258,0.8242,0.826,0.827,0.8261,0.8282,0.8286,0.8296,0.8321,0.8333,0.8326,0.8371,0.8358,0.836,0.8362,0.8373,0.8377,0.8381,0.8329,0.8329,0.8329,0,0,0.8238,0.8245,0.8265,0.8271,0.8281,0.8281,0.8286,0.8294,0.8296,0.8317,0.8309,0.8322,0.8347,0.8353,0.8359,0.8394,0.8387,0.8399,0.8416,0.8428,0.8432,0.8435,0.8445,0.8449,0.8401,0.8401,0.8401,0,0.8257,0.828,0.8277,0.8294,0.8301,0.8291,0.8311,0.8317,0.8331,0.8335,0.8327,0.8356,0.8362,0.8387,0.8395,0.8401,0.8405,0.8397,0.8432,0.8435,0.8438,0.8447,0.8452,0.8402,0.8402,0.8402,0.8402,0,0.8301,0.8317,0.8332,0.8343,0.8352,0.8371,0.8369,0.8379,0.8375,0.8376,0.8396,0.8402,0.8415,0.8421,0.8419,0.8445,0.844,0.8432,0.8418,0.8443,0.8452,0.8456,0.8404,0.8404,0.8403,0.8403,0,0,0.8352,0.8359,0.8365,0.8368,0.8377,0.8388,0.8405,0.8417,0.8423,0.8433,0.8445,0.8465,0.8456,0.8463,0.8461,0.8471,0.8495,0.8462,0.8462,0.8466,0.8521,0.8526,0.8531,0.8491,0.8491,0.8492,0.852,0,0.8388,0.8417,0.8413,0.844,0.8453,0.8442,0.8457,0.8462,0.8463,0.8473,0.8474,0.8486,0.8475,0.8479,0.8489,0.849,0.8506,0.8488,0.8501,0.8502,0.8498,0.8536,0.8542,0.8568,0.8523,0.8524,0.8525,0,0.8434,0.8442,0.847,0.8473,0.8478,0.8491,0.85,0.851,0.8516,0.8515,0.8521,0.8516,0.8531,0.8516,0.8535,0.8523,0.8528,0.8529,0.853,0.853,0.8514,0.8536,0.8577,0.858,0.853,0.853,0.853,0,0.8465,0.8484,0.8502,0.8506,0.8511,0.8519,0.8521,0.8526,0.8532,0.8539,0.8543,0.8552,0.8557,0.8564,0.856,0.855,0.8579,0.8565,0.8578,0.8578,0.8584,0.8584,0.8625,0.8589,0.8589,0.8589,0.8589,0,0.8505,0.8522,0.8516,0.8528,0.8546,0.854,0.8558,0.8559,0.8562,0.8572,0.8564,0.8574,0.8569,0.8578,0.8575,0.859,0.8593,0.8591,0.859,0.8592,0.8591,0.8594,0.8592,0.859,0.859,0.859,0.8589,0,0.8544,0.8541,0.856,0.8561,0.8562,0.8575,0.8575,0.8585,0.8584,0.8597,0.8599,0.8597,0.8607,0.8604,0.8615,0.8612,0.8631,0.8628,0.8629,0.8628,0.864,0.8638,0.8684,0.8688,0.8651,0.8651,0.8651,0,0.8569,0.8581,0.8583,0.8589,0.8591,0.8601,0.8606,0.8601,0.8606,0.8611,0.862,0.8629,0.8635,0.8651,0.865,0.8657,0.8653,0.8669,0.8655,0.8654,0.8651,0.865,0.865,0.8672,0.8672,0.8672,0.8673,0,0.8612,0.8609,0.8617,0.8624,0.863,0.8635,0.864,0.8645,0.8639,0.8646,0.8655,0.866,0.8669,0.8677,0.8683,0.8684,0.8677,0.8677,0.868,0.8681,0.868,0.8679,0.8635,0.8676,0.8676,0.8675,0.8675,0.8675,0.8644,0.8653,0.8655,0.8663,0.8665,0.8669,0.8677,0.8675,0.8683,0.869,0.8686,0.8696,0.8697,0.8704,0.8706,0.8713,0.8707,0.8712,0.8713,0.8714,0.8715,0.8679,0.8714,0.8714,0.8714,0.8714,0.8714,0,0.8685,0.8685,0.8693,0.8698,0.8704,0.8695,0.8699,0.8704,0.8713,0.8715,0.8721,0.873,0.8736,0.8735,0.874,0.8746,0.8742,0.8748,0.8747,0.8746,0.8721,0.8717,0.875,0.875,0.875,0.875,0.875,0.875,0.8707,0.8722,0.8718,0.8733,0.8733,0.8742,0.8744,0.8746,0.8748,0.8758,0.8763,0.8762,0.8761,0.8767,0.8772,0.8771,0.8773,0.8779,0.8776,0.8752,0.8749,0.8745,0.8741,0.8779,0.8779,0.8801,0.8802,0.8802]}]]